{"data":{"norad_id":66920,"intl_designator":"2025-285F","name":"HULIANWANG DIGUI-110","alt_names":[],"object_type":"PAYLOAD","status":"ACTIVE","operator":null,"country":"PRC","launch_date":"2025-12-06","launch_site_code":"WSC","launch_vehicle":null,"mission":null,"orbit_class":"UNKNOWN","rcs_meters":null,"size_class":null,"mass_kg":null,"dimensions":null,"purposes":[],"wikipedia_slug":null,"has_3d_model":false,"image_url":null,"decayed_at":null,"tle_current":{"epoch":"2026-09-20T23:42:39.708576Z","epoch_age_seconds":69822,"freshness":"FRESH","line1":"1 66920U 25285F   26263.98795959 -.00000101  00000+0  49509-4 0  9998","line2":"2 66920  50.0100 162.3941 0000052 313.8347  46.2520 13.29329778 38802","mean_motion":13.29329778,"eccentricity":5.2e-6,"inclination_deg":50.01,"raan_deg":162.3941,"arg_perigee_deg":313.8347,"mean_anomaly_deg":46.252,"bstar":4.9509e-5,"rev_number":3880,"period_min":108.32526464325,"perigee_km":1149.2531670492,"apogee_km":1149.331452314,"semimajor_km":7527.4293096816,"source":"CELESTRAK","updated_at":"2026-09-21T09:00:16.305448Z"}}}